Wind_Speed
17 13 16 18 14 7 12 14 13 16 13 1 16 7 20 14 14 12 12 12 11 11 14 14 14 13 14 12 11 10 10 8 5 6 6 6 5 5 6 7 8 9 10 13
12 13 18 3 6 7 12 15 16 16 8 1 14 17 20 18 18 14 14 13 13 12 12 15 14 14 12 12 10 10 10 9 10 9 7 4 5 4 4 5 7 8 11 12
14 5 8 1 9 11 14 15 14 14 7 11 14 12 16 19 19 16 15 14 11 11 12 12 13 12 12 11 10 11 11 11 10 7 3 5 8 8 7 10 10 12 11 12
13 13 4 8 14 12 13 7 5 12 13 11 6 2 18 17 19 15 13 13 11 11 11 13 13 12 12 12 12 12 12 10 9 9 8 7 9 9 8 10 11 12 10 11
14 11 10 14 17 8 12 4 9 13 13 15 14 10 10 18 15 13 13 13 10 10 10 11 13 12 13 11 11 12 11 11 10 9 10 9 9 10 11 11 12 11 11 11
13 2 6 10 7 6 11 9 14 12 13 13 17 14 11 8 10 10 12 11 9 9 10 13 13 13 12 11 11 10 11 10 9 9 10 10 10 11 11 12 12 14 13 13
12 11 9 5 10 11 11 13 10 12 11 11 8 2 9 11 10 10 9 9 8 8 10 10 12 12 11 11 9 10 10 9 8 8 9 10 11 10 11 13 14 15 15 15
9 10 7 4 9 11 10 14 10 11 9 8 7 5 6 12 10 9 9 8 8 8 8 9 11 11 10 8 9 9 8 8 7 8 9 10 11 12 12 13 14 14 16 16
2 4 6 4 4 7 3 8 6 8 8 7 4 9 12 10 11 8 7 7 7 9 9 9 11 9 8 9 8 7 6 5 8 9 9 10 11 12 13 13 14 15 16 18
5 2 0 4 5 4 6 7 6 3 5 8 3 8 9 8 8 7 7 7 7 8 9 9 10 8 9 8 7 5 4 7 8 9 10 11 12 13 13 14 15 16 17 18
6 5 8 6 4 9 2 3 4 6 5 9 10 7 7 7 7 8 8 7 7 8 9 8 9 9 9 7 4 2 5 7 9 9 10 11 13 13 14 14 15 16 17 18
4 5 2 8 4 5 6 6 7 6 6 1 7 6 7 8 8 8 8 7 7 8 8 9 9 8 8 4 2 4 5 7 8 9 10 11 13 14 14 15 16 17 18 18
4 2 5 9 8 5 4 5 4 5 6 7 6 6 7 7 8 7 7 7 6 7 8 8 8 8 6 3 4 4 6 7 8 9 10 11 13 13 14 15 16 17 18 19
4 2 5 7 6 5 3 5 7 7 5 4 6 11 7 6 6 6 6 6 7 6 6 6 7 7 5 5 3 4 5 7 8 9 10 12 13 13 14 15 16 17 18 19
2 2 4 7 8 7 5 5 6 7 6 6 7 10 8 6 6 6 6 6 6 5 5 5 4 5 11 4 2 3 5 7 8 9 11 12 12 13 14 16 16 17 18 19
1 3 6 4 4 5 4 4 6 7 6 6 5 10 7 6 7 5 5 4 4 4 4 4 5 14 7 1 3 4 5 7 8 9 11 11 12 14 15 16 17 18 18 20
3 6 5 4 0 1 4 3 5 6 7 8 6 7 2 6 5 5 6 3 3 4 4 5 10 9 4 3 1 4 5 6 8 9 10 12 13 15 16 17 18 19 20 20
5 5 1 3 5 1 5 4 2 7 5 5 6 6 5 8 7 7 6 6 6 6 8 12 10 7 4 3 2 3 5 7 8 9 11 12 14 15 16 18 19 20 20 21
4 4 3 3 6 3 7 6 5 4 8 4 5 4 6 8 10 10 9 9 10 12 13 11 8 6 4 2 3 4 5 6 8 10 11 13 14 16 17 19 19 20 21 21
5 5 4 2 3 4 10 9 3 2 5 5 4 3 3 4 5 7 9 14 15 14 12 11 8 4 4 4 4 5 6 7 9 10 11 13 14 15 17 19 20 20 21 20
8 7 6 7 3 4 8 6 5 5 6 5 5 5 3 5 7 13 15 13 14 13 12 10 6 5 6 4 4 6 6 8 8 9 11 13 15 15 17 18 19 20 21 21
6 5 4 5 3 2 9 7 3 8 7 6 7 9 12 13 14 13 12 12 12 13 10 6 6 7 6 5 5 6 7 6 8 10 12 12 14 15 17 18 19 19 22 21
4 1 2 5 5 10 7 12 8 8 8 8 9 11 13 14 13 11 10 12 13 11 8 7 8 7 6 6 6 7 5 7 8 10 9 12 13 14 15 16 19 19 21 22
3 2 4 7 8 10 11 10 10 10 10 11 11 12 12 13 13 11 11 12 11 9 8 8 7 7 7 7 8 6 5 7 10 10 10 12 13 14 15 14 16 18 19 20
3 7 7 11 12 11 10 11 12 13 13 13 13 13 13 13 12 11 11 11 10 10 8 7 7 8 8 7 7 6 6 7 8 10 11 13 12 14 15 15 10 13 13 17
5 5 7 6 16 5 13 12 13 13 12 12 13 14 14 14 12 13 12 11 11 10 8 9 9 10 9 6 5 5 6 8 10 10 11 11 13 14 15 15 14 14 17 18
Wind_Direction
199 225 235 242 246 295 325 301 265 282 300 193 280 316 77 71 61 99 108 113 115 118 116 136 120 127 122 122 121 115 103 90 68 63 44 35 326 337 328 345 347 348 345 345
220 234 255 333 357 295 280 273 278 285 280 256 281 94 78 68 65 49 92 97 105 114 124 119 128 124 126 120 108 101 88 72 59 64 62 9 322 298 321 334 334 340 348 341
239 274 32 63 249 239 253 265 276 287 298 231 253 129 107 82 69 69 71 83 102 117 120 127 127 128 118 112 105 91 85 77 71 67 55 322 272 265 355 335 338 338 334 336
238 256 192 242 253 270 281 310 318 274 267 271 125 265 143 104 81 61 68 74 89 105 120 128 127 128 112 102 95 91 83 71 57 55 20 1 355 355 346 341 338 328 330 332
229 230 240 243 251 265 267 342 283 281 269 274 279 259 106 59 55 63 66 74 84 102 120 124 129 118 112 109 103 89 78 65 50 40 27 15 4 354 347 343 333 332 331 331
275 187 254 255 273 239 271 266 246 252 255 258 253 262 60 35 27 66 73 75 84 99 115 116 114 122 119 110 92 83 75 62 48 35 24 18 9 360 349 345 337 339 335 334
205 219 217 262 257 223 242 257 258 248 237 249 54 284 61 64 56 49 69 81 91 110 115 125 136 132 116 103 95 82 68 57 39 28 21 15 6 355 346 347 343 337 338 335
225 175 182 134 263 305 220 246 276 298 301 324 173 90 84 83 79 75 78 87 110 120 129 140 134 120 120 105 91 77 60 46 25 21 16 12 5 357 351 348 342 338 335 331
211 135 105 63 302 268 214 244 348 297 248 272 139 100 135 104 94 85 87 101 109 124 138 132 126 119 120 102 84 64 50 28 25 18 10 7 2 357 351 345 343 338 334 331
13 221 296 94 254 152 308 5 258 244 274 292 125 134 73 60 72 101 100 103 114 127 132 131 125 131 109 101 81 52 26 28 21 15 10 3 358 355 350 346 344 340 336 334
319 265 132 205 5 355 235 184 319 311 305 302 302 88 43 61 62 88 96 106 125 136 138 140 131 127 117 101 50 35 29 24 16 11 6 1 356 353 351 349 345 342 339 338
51 314 274 63 94 356 41 10 320 311 325 219 299 87 60 71 78 93 104 109 120 137 145 140 143 130 121 109 25 39 30 18 11 6 2 1 356 354 352 350 346 345 343 341
17 217 217 189 180 143 31 4 313 289 276 282 315 98 95 96 90 92 111 118 133 143 143 145 145 137 144 100 40 23 24 12 5 2 0 2 358 355 353 350 347 347 346 344
283 27 329 13 59 354 55 2 340 317 286 26 43 128 103 87 95 107 110 128 138 155 155 157 159 128 174 71 19 5 14 9 2 1 1 3 359 355 353 351 350 349 346 345
355 85 56 58 59 55 46 27 35 53 17 8 93 77 72 58 79 95 114 126 136 152 171 159 153 136 89 65 327 5 10 5 2 3 3 4 360 356 355 353 350 348 345 345
35 120 118 98 118 96 90 79 78 55 58 75 118 110 81 89 108 111 115 132 143 148 152 143 116 98 95 200 292 4 11 7 4 6 6 4 1 358 356 351 349 348 346 347
140 158 198 156 101 39 170 57 75 91 46 353 54 71 145 128 78 68 111 106 100 117 128 120 101 106 134 205 352 354 20 7 7 9 9 6 1 358 354 351 352 350 348 348
164 178 202 134 183 261 86 128 80 94 79 78 89 71 49 77 81 72 43 85 93 105 105 97 111 117 155 210 33 31 16 16 12 15 9 6 0 356 353 352 352 350 349 349
215 175 144 160 197 107 164 176 169 217 114 60 84 107 105 121 127 77 61 74 80 87 99 117 123 136 169 100 60 31 17 18 20 13 9 1 357 352 352 352 351 350 348 348
189 256 210 201 167 205 111 126 111 232 160 91 52 84 143 180 235 97 100 86 90 96 110 118 131 150 102 75 49 26 23 24 19 10 2 357 354 353 351 351 352 350 351 349
178 190 190 160 202 91 103 128 168 237 84 85 64 71 79 65 64 108 98 98 96 107 117 129 144 113 86 74 39 38 33 29 14 2 356 357 354 351 352 352 355 354 354 353
167 161 201 182 161 162 144 150 297 98 108 98 88 85 101 110 113 106 111 108 109 120 137 151 114 96 84 58 31 43 44 25 9 360 354 355 354 354 357 358 358 359 359 357
183 345 162 16 76 111 87 86 102 105 113 107 107 114 122 124 121 119 114 111 122 138 127 109 104 98 75 46 31 62 43 21 10 1 354 352 358 357 2 5 4 4 4 2
138 191 124 143 128 123 113 103 99 98 107 109 118 123 129 126 122 121 112 122 120 115 109 104 108 94 73 58 63 62 31 6 350 349 360 0 2 358 5 8 7 8 8 4
31 171 137 104 130 128 128 110 110 108 110 113 117 122 125 125 127 123 122 123 118 113 110 103 94 85 72 75 68 42 17 359 357 4 7 6 4 4 5 10 11 12 7 8
200 159 185 196 163 165 143 130 127 127 123 121 123 123 124 128 125 123 124 121 118 114 109 100 97 100 95 87 57 21 15 10 4 9 8 12 5 7 7 6 6 0 4 358
Height
759 769 771 758 747 748 757 762 764 749 735 753 758 747 761 766 765 772 779 789 800 807 817 824 830 837 842 848 852 855 857 859 859 859 862 863 862 858 859 858 860 858 856 855
761 775 752 745 754 764 764 768 763 748 737 755 753 765 772 780 786 782 783 794 805 815 823 830 837 843 848 852 856 858 859 861 861 863 863 863 862 859 858 858 857 857 855 855
767 755 750 759 763 771 765 768 763 763 746 747 752 769 780 792 793 798 799 802 811 820 828 836 842 847 852 856 859 861 863 863 864 863 863 862 860 857 855 857 856 857 856 855
760 747 761 766 769 762 774 748 758 763 764 773 747 782 770 779 797 809 811 810 817 825 832 839 845 851 855 860 864 865 866 867 867 865 865 864 861 860 859 858 858 857 856 854
765 760 767 772 764 753 767 755 759 756 759 757 752 762 772 775 798 816 818 819 825 830 836 842 848 854 860 865 867 868 869 869 869 868 867 865 863 861 860 860 859 856 854 853
753 744 753 755 750 754 751 762 758 755 757 776 751 750 799 802 817 815 822 827 832 836 842 847 854 859 863 867 869 871 871 871 871 870 869 868 866 865 863 861 858 856 854 852
758 757 750 752 763 752 759 768 781 778 775 772 747 761 805 816 823 824 827 834 839 842 847 853 858 861 867 870 872 873 874 873 873 872 871 870 868 866 864 862 859 857 854 852
765 778 756 752 760 760 755 760 775 794 781 770 753 781 818 817 825 830 835 839 843 846 851 855 858 863 869 873 875 876 876 875 874 873 872 871 869 867 865 863 861 858 855 852
768 769 754 756 754 754 758 771 752 772 765 780 770 807 801 804 819 829 836 839 843 847 852 856 862 868 872 875 878 878 877 876 875 875 874 872 870 869 867 865 862 859 856 852
761 778 761 760 754 752 758 752 775 772 793 795 773 784 809 813 817 825 833 840 845 849 854 859 864 870 874 879 881 879 878 877 877 876 875 873 872 870 868 865 862 859 856 852
761 766 773 763 769 768 761 763 768 768 773 791 790 814 815 820 823 828 836 841 846 850 856 861 867 872 877 882 882 881 879 878 878 877 876 875 873 870 868 866 863 859 856 852
768 768 778 773 768 763 767 775 772 789 785 779 788 820 819 823 826 829 838 844 847 852 857 862 868 874 881 883 882 881 880 880 879 878 877 876 874 871 869 866 863 860 856 852
773 777 786 784 778 769 779 778 777 778 780 786 804 820 820 825 829 834 840 846 851 854 859 864 869 875 883 884 883 882 881 881 881 879 878 876 875 872 870 867 864 860 857 853
780 780 786 796 795 780 792 787 782 784 797 790 801 817 819 825 830 837 842 847 852 856 861 865 869 877 882 885 886 884 883 883 882 881 879 878 876 874 871 868 865 861 857 853
775 793 787 786 786 787 792 794 791 796 794 802 806 813 822 828 830 836 842 847 853 857 862 866 870 876 884 888 887 885 884 884 883 882 881 879 878 875 872 869 865 862 857 853
780 800 793 803 793 794 803 798 799 802 802 804 805 823 825 830 834 839 844 849 853 858 862 868 873 882 888 889 888 886 886 886 884 883 882 881 879 876 873 870 866 862 857 853
788 795 800 808 800 803 816 809 806 808 808 807 815 822 822 826 832 835 842 848 852 858 864 872 879 886 888 890 888 887 887 887 886 885 884 882 880 877 874 870 866 862 857 852
790 793 798 806 809 849 812 803 804 812 814 813 817 821 824 830 837 841 843 847 856 861 870 880 886 888 890 890 889 889 888 888 888 887 886 884 882 879 875 872 868 863 858 853
783 792 811 824 818 815 814 811 811 812 820 816 819 824 828 835 842 850 854 856 860 868 878 884 888 889 890 889 890 890 890 890 889 889 888 886 884 880 877 873 869 864 859 854
789 790 799 821 831 831 803 803 804 807 823 818 820 826 830 833 833 855 861 867 872 878 884 887 889 890 889 891 892 892 892 892 892 892 891 888 886 882 878 874 870 865 860 856
800 798 806 816 820 813 801 806 806 825 833 821 823 827 831 835 846 859 868 873 878 883 887 889 890 889 891 893 894 894 894 896 896 894 892 890 887 883 880 876 872 867 863 858
797 805 803 802 811 836 804 810 818 822 821 825 829 835 843 851 857 865 872 877 882 887 889 889 889 892 894 896 896 896 898 899 898 896 894 892 888 885 881 878 874 870 866 861
800 791 796 801 807 804 805 812 814 817 824 829 836 843 848 854 861 869 873 878 884 887 887 889 892 895 897 898 898 899 901 900 899 898 895 892 889 886 883 880 877 873 870 865
795 792 798 803 812 811 814 817 819 824 829 835 841 847 852 858 865 871 876 880 883 887 889 892 895 897 900 901 902 903 903 902 899 897 895 893 891 888 885 882 881 878 875 871
792 794 801 807 811 816 818 823 828 833 837 842 846 851 857 863 869 873 878 882 886 889 893 895 897 901 904 905 906 906 905 903 900 898 897 896 892 890 887 884 882 881 879 875
793 794 803 803 808 809 822 828 833 837 841 846 851 857 862 867 871 876 880 884 888 892 895 898 903 905 907 908 908 907 906 904 902 900 899 898 895 892 889 887 884 881 879 875